Location: Newark
(34.1333°N, 7.9667°W)
Time: 08:36:15
(UTC+00:00)

S-56A Canister/Altair - Pass Details

Date: 07 December 2021
Orbit: 634 x 2499 km, 38.9° (Epoch: 25 January)

Event Time Altitude Azimuth Distance (km) Brightness Sun altitude
Exits shadow 03:55:44 11° 105° (ESE) 2,107 10.3 -42.4°
Drops below altitude 10° 03:55:48 11° 105° (ESE) 2,135 10.4 -42.4°
Sets 03:58:00 0° 107° (ESE) 3,002 11.4 -41.9°
